Location: Goettingen
(51.5300°N, 9.9433°E)
Time: 19:39:45
(UTC+02:00)

ISS - Pass Details

Date: 17 July 2019
Orbit: 409 x 418 km, 51.6° (Epoch: 20 July)

Event Time Altitude Azimuth Distance (km) Brightness Sun altitude
Rises 03:54:08 0° 284° (WNW) 2,348 -0.2 -10.3°
Reaches altitude 10° 03:56:17 10° 277° (W) 1,482 -1.3 -10.1°
Maximum altitude 03:59:26 41° 205° (SSW) 607 -3.4 -9.9°
Drops below altitude 10° 04:02:35 10° 134° (SE) 1,473 -1.1 -9.6°
Sets 04:04:43 0° 127° (SE) 2,330 0.0 -9.4°
